User: anonymous   Login
Location: Hylvaty SDH
(49.9612°N, 16.4057°E)
Time: 18:59:39
(UTC+02:00)
Language:

Vanguard 2 Rocket - Orbit

View from above orbital plane
View from above orbital plane
View from above satellite
View from above satellite

Ground track
Ground track

The orbit data is extracted from the following two-line orbital elements,

1    12U 59001B   20221.84940595 +.00000158 +00000-0 +91362-4 0  9998
2    12 032.8992 167.6565 1664118 351.3890 006.1165 11.44298738285988
Epoch (UTC): 08 August 2020 20:23:08
Eccentricity: 0.1664118
inclination: 32.8992°
perigee height: 556 km
apogee height: 3324 km
right ascension of ascending node: 167.6565°
argument of perigee: 351.3890°
revolutions per day: 11.44298738
mean anomaly at epoch: 6.1165°
orbit number at epoch: 28598

The dashed part of the orbit path shows where the satellite is in the earth's shadow,  

DLR